GEFSNGP_500_meanwind_084.txt.gz
Wind_Speed
13 11 10 10 11 11 12 13 14 15 16 17 19 21 21 20 20 19 18 18 18 18 18 18 19 20 21 22 23 24 25 27 29 32 34 36 37 38 39 40 41 41 41 40
13 11 11 12 13 14 14 14 15 16 18 21 21 22 21 20 21 20 20 19 19 18 19 19 20 21 22 23 24 25 27 28 31 33 36 38 39 40 41 42 42 42 42 41
13 12 12 12 13 14 14 14 14 16 18 20 21 22 22 21 21 21 20 20 20 20 20 20 21 22 23 24 25 26 28 30 33 35 37 39 40 42 42 43 43 43 42 41
13 12 12 12 14 14 15 16 16 17 19 21 22 22 22 21 20 20 21 21 21 22 22 22 22 23 25 26 27 28 30 32 34 36 38 40 42 43 44 44 44 43 42 41
14 13 14 14 17 16 16 16 16 17 19 21 21 21 23 22 20 20 21 21 22 23 23 24 24 25 26 27 28 30 32 35 36 38 40 42 44 44 45 44 44 43 42 40
16 16 17 19 22 20 18 18 19 18 20 21 22 21 22 24 23 23 23 22 23 24 25 25 26 27 28 29 30 32 34 36 37 39 41 44 45 45 45 45 45 43 42 40
17 17 18 22 22 23 20 20 18 18 21 22 25 25 24 25 25 25 25 24 24 25 26 26 27 28 30 31 33 35 37 38 39 42 44 45 45 45 46 45 45 44 42 41
20 20 22 24 24 27 26 23 20 22 25 26 26 26 26 26 26 25 26 26 27 28 27 28 29 30 31 33 35 37 39 40 42 43 45 46 47 47 46 46 45 44 42 40
25 26 27 28 26 27 26 24 24 24 26 27 27 26 28 28 27 27 28 28 28 29 29 30 31 32 34 35 38 41 42 42 44 45 46 47 47 47 46 46 45 44 42 40
27 28 29 29 27 25 26 25 26 27 28 29 29 28 29 29 28 28 29 30 31 31 33 34 34 34 36 39 41 42 44 45 46 46 47 47 48 48 47 46 45 44 41 40
29 30 31 32 32 30 27 28 28 28 29 29 29 29 30 31 30 30 31 32 33 34 36 37 37 37 40 42 42 44 45 46 47 48 48 48 48 48 47 46 45 43 41 39
31 31 32 33 32 31 31 31 31 30 31 31 31 31 31 32 33 34 34 35 35 36 39 40 40 42 42 43 44 45 47 49 49 49 49 49 49 49 47 46 44 42 40 39
30 30 32 33 33 32 33 33 33 32 32 33 33 33 33 34 35 36 37 38 39 39 41 42 43 44 45 47 47 48 48 49 49 49 49 49 49 48 47 45 43 41 39 37
30 31 32 33 33 32 33 34 34 34 34 34 34 35 35 36 37 38 39 40 41 42 43 45 46 47 48 48 49 49 50 50 51 50 49 49 49 48 47 45 42 40 37 35
31 32 33 33 34 34 34 35 36 36 36 36 36 37 37 38 39 40 41 42 43 44 46 47 49 49 50 50 51 51 52 52 52 51 50 50 49 48 46 43 41 38 36 34
31 33 34 35 35 36 36 37 37 38 38 38 39 39 39 40 40 41 43 44 46 47 49 50 51 51 51 52 53 53 53 52 52 51 51 50 49 47 45 42 40 37 34 32
34 35 35 36 37 38 38 39 39 39 40 40 40 41 41 42 43 44 46 47 49 50 51 52 51 51 52 54 54 54 53 53 53 52 51 49 47 45 43 41 38 35 32 30
35 36 37 37 38 39 40 40 41 41 41 42 43 43 44 46 47 47 48 49 50 52 53 53 53 54 54 55 54 54 54 53 52 51 49 47 45 43 41 38 35 33 30 28
36 37 38 38 39 40 41 42 42 43 44 45 46 47 47 49 50 50 51 51 52 53 54 54 55 55 55 55 55 54 53 52 50 49 47 45 44 41 38 36 33 31 28 26
37 38 39 40 41 41 42 43 44 45 47 48 48 49 50 51 51 52 53 53 54 55 55 55 55 55 55 55 54 53 52 51 49 48 45 43 41 38 35 33 30 28 26 25
39 40 41 42 43 43 44 46 47 48 49 50 50 51 52 53 53 54 54 55 56 56 55 55 55 55 54 53 52 51 50 49 47 45 43 41 38 34 31 30 28 26 24 24
41 42 43 44 45 46 46 47 49 50 50 51 52 53 53 54 54 55 55 56 56 55 54 54 54 54 53 52 51 50 49 47 45 42 40 38 34 32 30 28 26 25 23 22
43 44 45 45 46 47 48 49 50 50 51 52 52 53 53 53 53 53 54 54 54 53 53 53 52 52 51 51 50 49 47 44 41 39 36 34 31 29 27 26 25 23 21 20
45 46 46 47 47 48 49 49 50 51 51 52 52 52 52 52 52 52 52 52 52 52 52 51 51 50 50 49 48 46 44 41 38 35 33 30 28 26 25 24 23 22 21 19
47 47 47 48 48 49 50 50 51 51 51 51 51 51 51 51 51 51 51 51 51 50 50 49 49 48 46 45 43 41 39 36 33 31 29 26 25 23 22 20 19 20 19 17
47 48 48 48 49 49 49 49 49 49 50 50 49 49 49 49 49 49 48 48 47 46 46 46 44 43 41 39 38 36 33 30 28 26 24 23 23 21 20 20 19 18 17 15
47 47 48 48 48 48 48 48 47 47 46 46 46 45 45 45 44 44 43 42 42 41 42 41 40 38 36 35 33 31 28 25 24 22 20 19 19 19 18 18 18 17 15 13

GEFSNGP_500_meanwind_090.txt.gz
Wind_Speed
14 14 15 14 14 14 14 15 15 14 14 13 12 12 12 10 9 9 8 8 9 9 10 11 12 13 14 14 15 16 18 19 21 22 23 25 27 29 31 32 34 35 36 36
15 15 16 16 15 15 16 16 16 16 15 14 13 13 13 12 11 11 11 11 11 12 12 13 14 15 16 17 18 19 20 21 23 24 25 26 29 31 32 33 35 36 37 37
16 16 18 18 17 18 19 18 19 19 17 16 16 14 13 13 13 13 13 12 13 14 15 16 17 18 18 19 20 21 22 23 24 26 27 29 31 32 34 35 36 37 37 38
17 17 19 16 17 19 19 20 21 20 20 19 17 16 16 15 14 14 14 14 15 16 17 18 19 20 20 21 22 23 24 25 26 27 28 30 32 34 36 36 36 37 38 39
17 17 17 16 17 19 20 21 21 21 21 20 20 19 17 16 16 16 16 17 18 18 19 20 21 22 22 23 24 25 26 27 28 29 30 32 34 35 36 37 38 39 40 40
19 20 19 17 18 20 21 23 23 22 21 22 23 22 20 19 19 19 19 20 20 21 22 22 23 24 25 25 26 27 28 29 30 31 32 34 35 36 37 39 40 41 41 41
20 20 20 20 19 20 22 23 23 23 23 24 25 23 22 22 21 20 21 22 22 23 23 24 25 26 26 27 28 29 30 31 32 33 35 36 37 38 39 40 41 41 41 42
23 22 22 23 22 20 21 22 22 23 24 23 23 23 22 22 24 23 22 23 24 24 25 26 26 27 28 29 31 31 32 33 34 36 37 38 39 39 41 41 41 42 42 42
24 23 23 22 22 22 20 21 22 22 22 22 22 20 20 22 22 22 23 24 25 26 28 28 28 30 30 31 32 33 34 35 37 38 38 39 40 41 42 43 43 42 43 43
26 26 24 23 22 22 22 21 19 19 19 19 20 20 21 22 23 24 25 26 27 27 29 30 31 31 32 34 35 35 36 37 39 40 41 42 43 43 43 44 44 44 44 44
27 25 25 24 24 24 22 21 20 19 18 20 20 22 23 23 25 26 27 28 28 29 31 32 32 34 35 36 36 37 38 39 40 42 43 43 43 44 44 45 45 45 45 45
27 26 26 25 24 23 22 21 20 20 20 21 22 23 25 26 27 28 29 30 31 32 32 33 34 35 37 38 39 40 40 40 42 43 44 45 45 46 46 46 46 47 47 46
28 27 27 26 25 24 23 23 23 23 23 24 24 25 26 27 28 29 30 31 32 34 34 35 36 37 39 40 41 42 43 43 44 45 47 47 47 47 48 48 48 48 47 46
27 27 27 26 26 26 25 25 26 26 26 26 27 27 28 29 30 32 32 33 35 36 37 38 39 40 41 43 44 45 46 47 48 49 49 49 49 50 50 50 49 47 47 46
26 27 27 27 27 27 27 27 27 28 28 28 29 30 31 32 33 34 35 36 37 38 39 40 41 43 44 45 47 48 49 49 50 50 50 51 52 52 52 51 50 48 47 45
26 27 27 26 26 27 27 27 28 29 30 31 32 32 33 34 35 36 37 38 39 40 42 43 44 45 46 47 48 49 51 51 52 52 53 53 53 53 52 51 49 48 46 44
26 26 27 27 27 27 27 28 29 30 32 33 34 35 36 36 37 38 39 40 41 43 44 45 47 48 49 49 50 51 52 53 53 54 54 54 53 53 52 50 48 47 45 43
26 25 25 25 27 27 28 30 31 33 34 35 36 37 38 39 40 41 42 43 44 45 46 48 49 50 51 51 52 53 53 54 54 54 53 53 52 52 51 49 47 45 43 41
24 24 25 27 28 29 31 32 34 36 37 39 40 40 41 42 43 44 45 45 46 47 48 49 50 51 51 52 53 53 53 54 53 53 53 52 51 50 49 48 45 43 41 39
27 27 28 29 31 33 34 36 37 39 40 41 43 44 45 45 46 47 47 48 49 49 50 50 51 51 52 53 53 53 54 54 54 53 52 52 50 49 47 45 43 41 39 36
30 31 32 34 35 36 38 39 40 41 43 44 45 46 46 47 48 49 49 49 50 51 51 51 52 52 53 53 53 54 54 54 54 53 52 50 48 46 44 42 40 38 35 33
34 36 37 38 39 39 40 42 43 43 44 45 46 47 48 48 49 50 50 51 51 51 51 51 52 53 53 53 53 53 52 52 51 49 48 46 44 42 40 37 35 33 31 29
38 40 41 42 42 42 43 44 44 45 45 46 47 48 48 49 49 49 49 50 50 50 50 51 50 50 50 50 49 49 47 46 45 44 42 40 38 36 33 31 29 27 26 24
42 42 43 44 44 44 45 46 46 47 47 48 48 49 49 49 49 49 48 48 48 47 47 47 46 45 45 44 44 43 43 42 41 40 37 35 32 30 28 27 25 23 21 20
43 44 45 45 46 47 47 47 48 48 48 48 48 48 47 47 46 45 44 44 43 43 43 42 41 41 41 40 40 40 39 38 37 36 33 30 28 26 23 21 20 18 17 16
44 45 45 46 47 47 47 47 47 46 45 45 44 43 43 42 42 41 41 40 40 39 39 38 38 38 37 37 37 37 36 34 33 31 29 26 24 21 19 17 16 15 14 14
44 45 45 45 45 45 45 44 44 43 43 42 41 40 40 39 39 39 38 37 37 37 36 35 35 35 35 36 35 34 32 30 28 26 24 21 18 16 14 13 12 12 11 12

GEFSNGP_500_meanwind_096.txt.gz
Wind_Speed
16 16 17 16 16 17 17 17 16 14 13 12 13 14 14 14 14 15 15 15 14 14 14 14 15 15 15 16 16 16 17 18 19 20 20 22 23 24 25 26 27 29 29 30
16 17 17 17 16 18 18 17 16 15 13 13 14 15 15 15 15 16 16 16 16 16 16 16 16 16 17 18 18 18 19 20 21 22 23 24 25 26 27 28 29 30 32 33
17 18 18 17 17 18 19 19 18 17 15 16 17 17 17 17 17 17 18 18 18 18 19 19 18 18 18 19 19 20 21 22 23 24 26 26 27 28 29 30 31 32 33 34
18 19 21 17 18 19 19 19 19 18 18 18 18 19 18 18 19 19 19 20 19 20 21 20 21 21 21 21 22 22 23 25 26 27 28 29 30 30 31 32 33 34 35 36
18 19 19 17 18 18 18 18 19 19 19 20 19 19 20 20 21 22 22 22 22 23 23 23 23 22 22 22 23 24 26 27 28 29 30 31 32 33 33 34 35 36 37 37
19 20 20 18 19 19 19 19 19 19 20 19 19 21 22 22 24 24 24 24 24 24 24 24 25 24 24 24 25 26 27 29 30 31 32 33 34 35 35 35 36 37 38 38
20 20 19 19 20 20 20 19 19 20 20 20 21 22 23 24 25 26 26 25 25 24 24 25 25 25 25 26 26 28 29 30 31 32 33 35 35 36 36 37 38 39 39 40
20 20 19 19 20 21 21 20 20 21 21 22 22 23 24 25 27 27 26 25 25 25 26 25 25 26 27 27 28 29 30 31 33 34 36 37 37 38 39 39 40 41 41 41
20 20 20 20 20 21 20 20 21 22 23 22 23 23 24 25 26 27 27 26 26 27 26 26 27 29 28 29 30 31 32 33 35 36 37 38 39 41 41 42 43 43 44 44
20 20 20 20 21 21 21 22 22 23 24 24 24 24 25 25 26 26 26 26 26 26 26 27 29 29 30 31 32 33 34 36 37 38 39 40 42 43 44 44 45 45 46 46
21 21 22 22 23 23 23 23 24 25 25 25 25 25 24 24 24 25 25 25 25 26 26 28 29 31 32 33 34 35 36 38 39 40 41 43 44 45 46 45 46 48 48 49
23 24 24 24 24 24 24 25 25 25 25 24 24 24 25 25 25 25 25 25 26 27 29 30 31 32 34 35 36 37 38 39 41 42 43 45 47 48 48 49 50 50 51 51
24 24 24 24 25 25 25 25 25 25 25 24 24 24 24 25 25 25 26 27 28 29 30 32 33 35 36 38 39 40 41 42 43 45 47 48 49 50 50 51 52 52 53 53
23 24 25 25 25 25 24 25 25 25 25 24 24 24 25 26 26 27 28 29 30 31 33 34 35 37 38 39 41 42 44 45 46 48 50 51 52 53 53 54 54 53 54 54
23 23 24 25 26 26 26 26 26 25 25 25 25 24 25 26 28 29 30 31 32 34 35 37 38 39 41 42 43 45 46 48 49 51 52 54 55 55 55 56 56 56 56 56
23 23 24 25 25 25 25 25 25 26 27 27 26 27 27 28 30 31 32 33 35 36 38 39 41 42 43 45 46 47 48 50 51 53 54 55 56 57 58 58 58 58 58 57
22 23 24 25 25 25 25 25 25 25 26 26 27 28 29 30 32 33 34 36 37 39 40 42 43 44 46 47 48 50 51 52 54 55 56 57 58 59 60 60 60 59 59 58
23 24 24 24 24 24 25 25 25 25 26 27 28 29 31 33 35 36 37 39 40 42 43 44 45 46 48 49 50 52 53 54 55 56 57 58 59 59 60 60 60 59 58 57
24 24 23 23 23 24 25 25 26 27 28 29 31 34 36 37 38 39 41 42 43 44 46 47 48 49 50 52 53 54 55 56 56 57 57 58 58 59 59 59 58 57 55 53
25 24 24 24 24 24 24 25 27 29 32 34 36 37 39 40 41 43 44 45 46 47 48 49 50 51 53 54 54 55 55 56 56 57 57 57 57 56 56 55 54 52 49 47
26 26 25 26 27 28 29 30 32 35 36 38 39 41 42 43 44 45 46 46 47 48 49 50 51 52 53 53 54 54 54 55 55 54 54 53 52 51 50 49 47 45 43 41
28 28 29 30 32 33 35 36 37 38 39 40 42 43 44 44 45 46 47 48 49 50 51 51 52 52 52 52 52 52 52 51 50 50 49 48 47 46 45 43 42 40 38 36
31 32 34 36 37 38 38 39 40 41 42 43 44 45 46 47 47 48 48 49 50 50 51 51 51 50 50 50 49 48 47 47 46 46 45 45 44 43 41 39 38 36 33 31
34 36 38 40 40 41 41 42 43 44 45 46 46 47 47 47 48 48 48 48 48 48 48 47 47 47 46 45 45 44 44 44 44 43 42 41 40 39 37 36 34 31 29 27
40 41 42 43 43 44 45 45 45 46 46 46 46 46 46 46 45 45 45 45 45 44 44 43 43 43 43 42 42 42 41 41 40 39 38 37 36 35 33 31 28 25 23 20
42 43 44 44 45 45 46 45 45 45 45 45 45 45 44 44 44 43 42 42 41 41 40 40 40 40 39 39 39 38 38 37 36 35 34 33 32 30 27 24 22 19 17 15
42 43 43 44 44 45 45 45 45 44 44 44 43 42 42 41 40 40 40 40 39 38 38 38 37 36 36 36 35 35 34 33 32 31 30 28 26 24 21 19 17 15 12 10

GEFSNGP_500_meanwind_102.txt.gz
Wind_Speed
23 22 21 20 18 17 17 16 16 15 15 16 16 16 15 15 14 13 13 13 13 14 14 14 14 15 16 16 17 18 20 20 21 22 23 24 24 25 25 25 25 26 26 27
22 22 20 20 18 18 17 17 17 16 16 16 17 17 17 16 16 15 15 15 15 16 16 17 17 18 19 20 20 21 22 23 23 24 25 26 26 26 26 26 27 27 28 29
22 21 20 20 19 18 17 17 17 17 17 17 18 18 18 18 18 17 17 17 18 18 19 20 20 21 22 23 23 24 25 25 26 27 27 28 28 28 28 28 29 30 30 30
22 22 21 20 19 19 18 18 17 17 18 19 19 19 19 20 20 21 20 20 20 21 22 23 23 24 25 26 26 27 27 28 29 29 29 30 30 29 29 30 30 31 31 32
24 23 22 21 20 20 19 18 18 19 19 20 20 20 21 21 22 22 23 23 23 24 25 26 26 27 27 28 29 30 30 31 32 31 31 31 30 31 31 31 31 32 32 33
23 22 22 22 20 20 20 20 20 20 20 20 20 21 22 22 23 23 24 25 26 27 28 29 29 30 30 31 32 33 33 33 33 32 32 32 32 33 33 33 34 34 35 36
23 23 22 22 20 20 20 21 20 21 21 21 21 22 23 23 24 25 26 27 27 28 29 31 33 33 33 33 34 34 34 35 34 34 34 34 34 35 35 35 36 37 37 38
22 22 23 22 20 20 21 21 21 21 22 22 23 23 24 25 26 26 27 28 28 29 30 32 34 34 34 34 34 35 35 35 35 35 35 35 36 37 37 37 38 39 39 39
23 23 22 22 22 21 21 21 22 22 23 23 24 25 25 26 26 27 28 29 29 30 32 34 35 35 35 36 35 35 35 36 36 35 35 37 38 39 39 40 41 41 42 42
22 22 22 22 23 22 22 22 23 24 24 24 24 25 25 26 27 29 29 29 30 32 33 33 34 35 35 36 36 36 37 37 37 37 37 38 39 40 41 42 43 44 45 45
21 22 22 23 23 23 23 23 23 25 26 26 26 26 26 27 27 28 29 30 31 31 32 33 34 35 35 36 35 36 36 36 37 37 38 40 41 42 43 44 45 46 48 48
22 21 22 23 23 24 24 25 25 25 25 26 27 27 27 29 30 30 30 31 31 32 33 33 33 32 32 32 33 34 35 36 37 39 41 42 43 44 45 46 47 49 50 51
22 22 23 24 24 24 25 26 27 27 27 27 28 29 29 30 30 31 31 30 31 32 32 32 32 31 31 32 34 35 37 39 41 42 44 45 46 47 49 50 51 53 54 55
21 21 22 23 24 25 25 26 26 27 27 28 29 30 30 31 31 30 31 32 32 33 33 33 33 33 34 35 36 38 40 41 43 44 46 48 49 50 52 53 55 56 57 58
20 20 21 22 23 24 25 26 27 27 27 28 29 30 30 31 31 32 32 33 33 33 34 34 35 36 37 38 39 41 42 44 45 47 48 50 52 53 54 56 57 58 60 61
19 20 21 22 23 24 25 26 27 27 28 29 29 30 32 33 33 34 34 34 35 35 35 36 37 38 39 41 42 43 45 46 48 50 51 52 54 56 57 59 60 60 61 61
18 19 20 21 23 24 25 26 26 27 28 29 30 32 34 34 35 36 36 36 36 36 37 38 39 40 42 44 45 46 48 49 51 52 53 55 57 58 59 59 60 60 60 60
19 20 21 23 23 24 25 26 27 29 30 31 31 33 34 35 36 36 36 36 36 37 39 40 41 43 44 46 47 48 49 51 52 53 55 56 57 58 58 58 58 59 59 59
20 21 23 24 24 25 26 27 28 29 30 31 31 33 34 34 34 35 36 37 38 40 41 42 43 45 46 47 49 50 52 53 54 55 56 57 57 57 57 57 57 56 55 54
22 23 24 25 25 26 27 28 29 31 32 33 33 34 35 35 36 37 38 39 41 42 44 45 46 47 49 50 51 53 53 54 55 55 56 56 55 54 54 53 52 51 50 48
24 24 25 26 27 28 30 31 32 34 35 35 36 37 38 39 40 41 42 43 44 45 46 47 48 49 50 51 52 53 53 54 54 54 53 52 51 50 50 49 48 46 45 43
25 26 28 29 30 31 32 33 34 36 37 38 39 40 41 42 42 43 45 45 46 47 47 48 49 50 50 51 51 51 51 51 50 50 49 48 47 46 45 44 43 42 41 39
27 29 30 31 33 34 35 36 37 38 39 40 41 42 43 43 44 45 46 47 47 48 48 48 48 49 49 48 48 48 48 47 46 45 45 44 43 42 40 39 38 37 37 35
30 31 33 34 35 36 37 38 39 40 41 42 43 44 45 45 46 47 47 47 48 48 47 47 46 46 46 45 45 44 43 42 41 41 40 40 38 37 36 35 34 33 31 29
33 34 36 37 38 39 39 40 41 42 43 44 45 45 46 46 46 46 46 46 46 45 44 44 43 42 42 41 40 39 38 37 37 36 36 34 33 32 32 31 29 27 25 23
34 35 36 37 39 39 40 41 42 42 43 43 43 43 43 43 43 43 43 42 42 41 40 39 39 38 37 36 35 34 33 33 33 32 30 29 29 29 27 26 24 22 20 18
34 35 36 37 38 39 39 40 40 41 41 41 41 41 41 41 40 40 39 39 38 37 36 36 35 34 33 32 31 30 30 29 29 28 27 26 25 24 22 21 19 17 15 14

GEFSNGP_500_meanwind_108.txt.gz
Wind_Speed
30 29 27 25 21 20 20 18 19 19 21 21 17 15 15 15 14 14 14 14 13 12 12 11 11 12 12 13 13 14 15 16 17 19 20 21 22 23 24 25 25 26 27 27
30 28 26 23 20 18 16 15 17 20 22 21 21 18 17 18 18 16 16 16 15 15 14 14 14 14 14 15 16 16 17 18 19 21 22 23 24 25 25 26 27 27 28 28
29 29 29 26 21 19 18 18 21 22 23 23 24 23 21 20 20 17 16 18 18 17 17 17 17 18 17 18 19 20 21 22 22 23 24 26 27 27 28 28 29 29 30 31
30 29 30 25 22 22 22 21 23 23 23 23 24 24 23 22 20 18 19 19 19 19 19 20 20 20 20 21 22 23 24 25 25 26 27 28 30 30 30 31 31 32 32 32
29 29 27 26 26 25 24 24 25 25 25 25 24 24 24 22 21 20 20 20 21 21 22 22 23 23 24 25 26 26 27 27 28 29 30 31 32 33 33 33 33 35 35 35
29 30 28 27 26 25 24 25 25 25 26 25 25 25 24 21 20 20 20 21 22 23 24 25 25 26 27 28 28 29 29 30 32 33 33 34 34 34 35 35 35 36 36 36
29 30 30 29 25 25 24 24 24 24 25 25 26 25 23 22 22 22 23 23 24 25 26 26 27 28 28 30 30 31 32 33 35 36 36 36 36 37 37 38 37 37 37 36
29 30 30 28 27 25 24 24 24 23 24 26 25 25 25 24 24 25 25 25 25 26 26 27 29 30 31 32 32 33 34 35 36 37 37 37 37 37 38 39 39 37 37 38
29 31 30 29 29 26 25 25 24 23 24 25 26 26 26 25 26 26 27 27 27 28 29 29 30 32 33 34 35 36 36 37 37 38 38 37 37 37 38 37 37 38 39 40
26 29 29 26 27 27 26 25 25 26 26 25 25 26 25 26 26 27 28 29 29 30 30 31 32 33 35 36 37 37 38 39 38 38 39 39 39 39 38 37 38 39 39 40
25 24 25 25 25 24 24 25 26 25 25 26 26 26 26 27 27 28 28 29 30 30 31 31 32 34 35 37 37 38 39 38 38 38 38 38 39 38 38 38 38 39 40 42
22 21 21 21 21 22 24 24 25 26 25 25 26 26 26 27 27 28 29 29 31 32 33 33 34 35 35 36 37 38 38 38 38 38 39 39 38 38 38 39 40 41 42 44
22 21 21 21 21 22 23 24 25 25 24 25 26 26 26 27 28 29 29 29 31 32 32 33 34 34 35 37 37 38 38 38 39 39 39 39 38 39 40 41 42 43 44 46
18 19 19 19 20 21 22 23 23 23 24 25 26 26 26 27 28 29 29 30 30 31 33 33 34 35 36 36 36 37 38 39 39 40 40 40 40 41 42 43 44 45 47 49
17 18 19 19 20 21 22 23 23 23 24 24 25 26 27 27 28 29 29 30 31 32 33 34 34 35 36 37 37 38 38 38 38 39 40 41 41 42 43 45 46 48 50 51
16 17 18 19 20 20 21 22 23 24 24 25 25 26 27 28 29 30 31 32 32 33 34 35 35 36 36 37 37 38 39 39 40 41 42 43 44 45 47 48 50 52 54 55
17 17 18 18 19 20 21 22 23 24 24 25 25 26 27 28 29 31 31 33 33 34 34 35 36 36 37 38 39 39 40 41 41 42 43 45 47 48 49 51 52 53 55 56
17 17 18 19 20 20 21 22 22 23 24 25 26 27 28 29 30 32 32 33 34 35 36 37 37 38 39 39 39 40 41 42 43 45 47 48 50 51 51 52 53 54 55 55
17 18 18 18 19 20 21 22 23 24 25 26 27 28 29 30 31 33 34 34 35 36 36 37 38 39 40 40 40 42 43 45 46 48 49 50 51 52 52 53 53 53 53 53
18 19 19 20 21 22 22 23 24 25 27 28 29 30 32 34 35 36 37 38 38 39 40 40 41 42 43 43 44 45 46 47 48 49 50 50 51 51 51 51 51 51 50 49
19 20 21 21 22 23 24 25 27 28 29 30 32 33 35 36 37 38 39 40 41 41 42 44 44 45 45 45 46 47 48 48 48 48 48 48 48 48 47 47 46 45 45 44
21 22 23 24 25 26 28 29 30 31 32 34 35 36 37 38 39 40 41 42 43 43 44 45 46 46 46 46 47 47 46 46 46 46 46 45 45 44 43 42 42 41 40 39
23 24 25 27 28 30 31 32 33 34 36 37 38 38 39 40 41 42 43 44 45 45 45 45 45 45 45 45 45 45 44 43 43 43 42 42 41 40 39 39 38 37 36 35
25 26 27 29 30 32 33 35 36 37 38 39 40 40 41 42 42 43 44 44 44 44 44 44 44 43 43 43 42 42 41 40 40 39 38 38 37 37 35 35 34 33 33 32
27 28 29 31 32 34 36 37 38 39 39 40 40 41 41 42 42 42 43 42 42 42 43 42 41 41 40 40 40 39 38 37 35 34 34 34 34 33 32 32 31 30 29 28
29 30 32 33 34 36 37 38 39 39 40 40 40 40 40 41 41 42 41 41 41 41 40 40 39 38 38 38 37 36 35 34 32 32 31 30 30 30 30 28 27 27 26 24
30 31 33 34 35 35 36 37 37 38 38 38 38 39 39 40 40 40 40 40 39 39 38 38 37 36 36 35 33 32 32 31 30 30 29 28 28 27 25 24 23 22 21 21

GEFSNGP_500_meanwind_114.txt.gz
Wind_Speed
34 31 29 29 29 27 26 25 23 21 20 19 17 15 13 11 9 7 6 7 7 7 8 9 9 9 9 9 11 12 13 14 14 15 16 16 18 19 20 21 22 22 23 24
35 32 32 30 29 28 27 26 26 23 21 20 19 16 13 12 11 10 9 9 9 8 9 10 10 10 11 11 12 13 14 14 15 16 17 18 19 21 22 23 24 25 26 27
37 34 33 32 30 29 28 28 27 25 22 21 19 18 15 13 12 11 10 10 11 11 12 12 12 13 14 14 14 15 16 17 17 19 20 20 22 24 24 25 26 26 27 28
37 36 35 31 31 31 30 29 28 26 23 22 20 19 17 15 13 13 12 12 12 12 14 15 15 15 16 17 17 18 19 19 20 21 23 24 25 26 27 27 28 29 29 29
37 36 35 32 31 31 30 28 26 25 24 22 20 19 17 15 14 14 14 14 14 15 15 16 17 18 18 19 19 20 21 21 22 23 25 26 27 28 29 29 29 29 30 30
34 34 34 31 30 30 29 29 27 26 24 22 22 20 18 17 16 15 15 16 16 16 16 16 18 19 20 20 21 21 22 24 25 26 28 29 29 29 28 28 30 31 32 33
31 32 32 29 28 29 30 27 26 26 25 25 23 21 20 18 17 17 17 17 17 18 18 19 20 21 22 22 23 23 24 26 28 29 29 30 30 30 29 30 31 33 34 34
27 29 30 30 28 27 27 27 26 26 25 23 23 21 21 20 19 18 19 19 20 21 21 22 22 23 24 24 25 26 27 28 29 30 30 30 32 32 33 32 33 33 35 36
24 26 26 25 25 25 25 26 25 26 25 25 24 23 22 21 20 19 19 20 21 22 22 22 23 25 26 27 28 29 29 30 31 32 33 33 34 34 34 34 33 34 34 36
21 23 23 23 24 24 24 26 26 26 25 23 22 22 21 21 20 20 19 20 22 23 24 24 25 27 28 29 30 31 32 32 32 33 33 34 35 35 36 36 36 37 38 39
17 18 18 19 20 22 23 24 24 24 23 21 21 21 22 22 22 21 21 21 22 23 24 26 27 28 28 29 30 32 33 33 34 35 35 35 35 36 37 38 38 39 40 41
13 15 17 18 18 19 20 19 17 17 19 19 19 19 20 20 21 21 22 23 23 24 24 25 26 28 29 30 31 32 33 34 34 35 36 37 38 38 38 39 40 40 40 41
11 12 14 14 13 15 18 17 17 17 17 19 19 19 20 21 21 21 22 22 22 23 24 26 27 28 29 30 31 33 34 35 36 36 37 38 38 39 40 40 40 41 41 41
10 10 11 12 13 13 15 16 15 16 16 17 17 18 19 20 20 21 22 22 23 24 25 27 28 29 31 32 33 34 35 36 37 37 38 39 39 40 41 41 41 41 42 43
8 9 10 10 11 11 12 13 13 14 14 15 16 17 18 19 20 20 21 23 24 25 26 28 29 30 32 33 34 35 35 36 37 37 38 39 40 41 42 42 42 43 44 46
8 9 9 9 9 10 10 11 11 12 13 14 15 17 18 20 21 22 22 24 25 26 27 29 30 31 32 33 34 35 36 37 37 37 38 39 40 41 42 43 44 45 47 48
9 9 9 9 9 9 10 10 11 12 13 15 16 17 19 21 22 23 24 25 27 28 29 30 31 31 32 34 35 36 36 37 38 39 40 41 42 43 44 45 46 46 47 48
10 9 9 9 9 10 10 10 11 13 14 16 17 19 21 22 24 25 26 27 28 29 30 31 32 33 34 36 37 37 38 40 41 42 43 44 44 45 45 46 47 48 48 49
10 10 10 10 11 12 13 14 14 15 16 17 19 21 22 24 25 26 28 29 30 31 32 34 35 36 37 38 39 40 41 42 43 44 45 45 46 46 47 48 48 49 49 49
10 10 11 11 12 13 14 16 16 18 19 20 21 22 24 25 26 28 29 30 32 33 34 35 36 38 39 40 41 42 43 44 44 45 46 46 46 47 47 47 47 46 46 46
11 12 12 13 14 15 16 17 19 20 21 22 23 25 26 27 28 29 31 32 34 35 36 38 39 40 41 42 43 44 44 45 45 45 45 45 45 45 45 44 43 43 42 41
13 14 14 15 16 17 18 19 21 22 23 25 26 27 28 29 30 32 34 35 36 38 39 40 41 42 43 44 44 44 44 44 44 44 44 43 42 42 41 40 40 39 38 37
15 16 17 18 19 20 21 22 23 24 25 27 28 29 30 32 33 35 36 37 39 40 41 41 42 42 42 43 43 43 43 43 43 42 41 40 39 38 37 36 36 35 34 33
17 18 19 20 20 22 23 24 25 26 28 29 31 32 33 35 36 37 38 39 39 40 40 41 41 42 42 42 42 42 41 41 40 38 37 36 36 35 34 33 32 31 30 29
18 19 21 22 23 24 25 27 28 29 30 31 32 34 35 36 37 38 39 39 40 40 40 41 41 40 40 39 39 39 38 37 36 35 34 33 32 32 31 30 28 27 26 26
20 21 22 23 25 26 27 29 30 31 32 33 34 35 36 37 38 39 39 39 39 39 39 39 38 38 37 37 37 36 35 34 33 32 31 30 29 28 27 26 24 23 22 22
22 23 24 25 26 27 28 29 30 31 32 33 35 36 36 37 37 37 37 37 36 36 36 36 35 34 34 33 32 31 30 29 28 27 25 25 24 23 22 21 20 19 18 17

GEFSNGP_500_meanwind_120.txt.gz
Wind_Speed
31 29 29 30 29 29 28 27 25 21 19 16 16 16 15 13 12 12 12 12 12 11 11 10 9 9 10 10 12 12 13 14 15 16 16 17 18 20 22 23 23 24 24 25
34 32 32 32 31 31 30 28 26 24 21 18 18 18 16 15 14 13 13 12 12 12 12 11 11 11 11 11 12 13 14 15 16 17 18 19 20 21 22 23 24 26 27 27
37 35 35 33 30 31 31 30 27 25 22 21 20 19 18 16 15 15 15 14 14 14 13 13 13 13 14 13 14 15 15 16 17 18 18 20 21 22 23 25 26 27 28 29
36 35 36 31 30 30 31 30 29 26 24 22 20 20 19 18 17 17 16 16 15 15 15 15 14 14 15 17 17 18 18 18 18 19 20 21 22 23 25 27 28 30 31 32
34 34 33 31 29 29 29 29 28 27 25 23 21 21 20 19 18 18 18 18 18 18 17 17 17 16 16 17 19 20 21 21 21 21 22 23 25 26 27 29 30 31 32 33
31 32 31 29 28 28 28 28 27 26 26 24 22 22 21 20 20 20 20 20 19 19 19 19 19 19 19 19 20 21 22 22 23 24 25 26 27 29 30 30 32 32 31 33
28 29 28 28 27 27 29 26 26 26 25 24 23 22 23 22 22 22 21 21 21 21 20 20 20 21 21 21 21 22 23 24 24 26 27 28 29 30 30 31 32 33 34 35
26 27 26 25 26 27 26 26 26 26 25 24 23 23 23 23 23 23 22 22 22 22 22 22 22 22 22 22 23 24 24 26 26 27 28 29 30 31 32 32 34 36 36 38
23 24 23 23 23 25 25 24 24 25 25 25 24 24 24 25 25 24 24 23 22 23 22 22 23 23 23 24 24 25 26 28 29 30 30 31 32 33 34 35 36 37 37 39
19 19 18 19 21 22 22 23 24 24 24 25 25 25 25 25 25 25 25 24 23 23 23 24 24 24 25 26 26 27 28 28 29 30 31 32 32 33 34 35 36 37 38 39
17 18 17 17 19 19 20 20 21 22 23 25 25 25 26 26 26 25 25 24 24 24 24 23 24 25 26 27 28 29 29 29 29 30 31 32 32 33 35 36 37 37 38 39
12 14 16 17 17 17 18 18 19 21 23 23 24 24 24 25 25 25 25 24 24 24 24 24 25 26 27 27 28 29 30 30 31 32 32 33 34 35 36 37 38 39 40 41
12 12 13 13 14 15 16 16 17 18 21 23 23 23 24 24 24 24 23 23 24 24 24 24 25 26 27 29 29 30 31 32 32 33 34 35 36 37 38 39 40 41 42 42
10 10 11 11 11 14 14 14 15 16 18 20 20 21 22 22 22 21 21 21 22 22 23 24 26 26 27 28 30 31 32 32 33 34 35 36 37 38 39 39 41 42 43 44
10 10 9 8 9 10 12 12 13 14 16 16 16 18 18 18 17 18 19 20 21 22 23 24 25 26 28 29 30 31 32 33 35 36 37 38 38 39 40 42 43 44 45 46
10 10 9 9 8 9 10 11 12 12 12 13 14 15 16 15 16 17 18 19 20 21 22 24 26 28 29 31 32 34 35 36 37 38 38 40 41 42 43 45 46 47 48 48
8 8 8 9 9 9 10 9 10 12 12 12 12 13 14 14 15 16 17 19 20 21 23 25 27 29 31 32 34 35 36 37 38 40 41 42 44 45 46 48 48 49 50 50
9 9 9 9 9 8 8 9 10 10 10 11 12 12 14 14 15 17 18 20 22 24 26 27 29 31 33 34 36 36 38 39 41 42 44 45 47 48 49 50 51 51 52 53
8 8 8 8 9 8 8 9 10 10 11 11 12 13 14 16 18 19 21 22 24 26 28 30 31 33 35 36 37 39 41 42 44 45 46 48 49 50 51 51 51 52 52 52
10 10 10 10 10 10 9 9 9 11 11 13 14 15 17 18 20 22 23 25 27 29 30 32 34 35 37 38 40 41 43 44 46 47 49 50 50 50 50 50 50 50 49 49
11 11 11 10 10 10 10 11 12 13 14 15 17 18 20 21 23 24 26 28 29 31 33 34 36 37 39 41 43 44 45 47 48 48 49 49 49 49 48 48 48 47 46 46
11 11 11 11 11 12 12 13 14 15 17 18 19 21 22 24 25 27 29 30 31 33 35 36 38 40 41 43 45 46 47 48 48 48 47 47 46 45 45 44 44 43 42 41
12 12 12 13 13 14 14 15 17 18 19 21 22 23 24 26 27 29 30 32 34 35 37 39 40 42 43 44 45 46 46 45 45 44 43 42 42 42 41 40 39 37 36 35
12 13 13 14 15 16 17 18 19 20 21 23 24 25 27 28 30 31 33 34 36 37 38 40 41 42 43 43 43 42 42 41 40 39 38 38 38 37 36 34 33 32 31 31
14 15 16 17 18 19 20 21 22 23 25 26 27 28 30 31 32 34 35 36 37 38 39 40 41 40 40 40 40 39 38 37 36 35 35 34 33 31 30 29 29 28 28 28
17 18 19 20 20 21 22 23 25 26 27 28 29 30 32 33 34 35 36 37 38 38 39 39 39 38 38 37 37 36 35 34 33 32 31 30 29 28 27 26 26 25 25 24
19 20 21 22 23 23 24 25 26 27 28 30 31 32 33 34 34 35 35 36 36 37 37 36 35 35 35 34 33 32 31 30 30 29 29 28 27 25 25 24 23 22 21 20

GEFSNGP_500_meanwind_126.txt.gz
Wind_Speed
25 25 24 23 24 24 24 23 23 21 19 19 18 17 16 15 14 13 12 11 10 9 9 8 7 6 7 7 8 9 10 12 14 16 17 18 19 20 20 21 21 22 23 24
26 26 26 26 25 25 25 25 24 23 22 21 21 20 19 17 16 15 14 13 12 11 11 10 9 9 9 8 8 10 11 12 14 15 17 18 19 20 20 21 22 22 24 25
27 28 28 28 26 26 26 25 26 26 24 24 23 22 22 20 18 17 16 15 14 14 13 12 11 11 11 11 11 11 12 13 14 15 16 18 19 20 21 22 23 24 25 27
28 29 31 28 27 27 27 26 26 26 26 26 25 24 23 22 20 19 18 17 16 15 14 13 13 13 13 13 13 13 13 14 15 16 17 18 20 21 22 23 25 27 28 30
29 29 30 30 27 27 27 27 27 27 26 26 25 25 24 23 22 21 20 19 18 17 16 15 14 15 15 15 16 16 16 16 17 18 19 21 21 23 24 25 27 28 29 30
28 28 29 29 27 26 27 28 27 27 27 26 26 26 26 24 24 23 22 20 20 19 19 18 18 18 18 18 17 17 17 18 19 20 22 24 24 25 26 28 29 30 31 32
26 27 27 27 25 25 27 27 26 27 27 27 27 27 26 26 25 23 23 22 21 21 20 20 20 20 20 20 20 20 20 19 20 21 22 23 25 26 27 29 30 32 33 34
25 25 25 23 23 24 25 26 26 27 27 28 27 26 27 27 26 25 25 24 23 22 22 22 22 22 22 22 22 22 22 22 22 23 24 25 26 27 28 29 31 32 34 35
24 24 23 22 22 23 23 25 26 26 27 27 27 27 28 28 28 27 26 25 25 25 25 24 24 24 24 24 25 25 24 24 24 25 26 27 27 29 30 30 32 33 34 36
22 22 22 21 22 22 22 23 25 26 27 28 27 27 27 28 28 28 27 27 27 27 26 26 26 26 26 25 24 24 24 25 26 27 27 28 29 30 31 32 33 34 36 37
20 20 20 20 21 21 22 23 23 24 26 28 28 27 27 28 28 28 28 29 29 28 27 27 27 27 27 27 26 27 28 28 29 29 30 30 31 32 33 33 34 35 36 37
18 18 19 19 19 19 20 21 23 24 26 27 27 27 27 28 28 28 29 29 28 29 29 29 29 29 29 28 28 28 29 30 30 31 31 31 32 32 33 34 34 36 37 39
15 15 16 17 18 18 19 19 21 24 25 26 26 27 27 28 28 28 28 29 28 29 29 29 29 29 29 29 29 29 30 29 30 30 31 32 32 33 34 35 36 37 39 40
13 13 14 14 15 16 17 18 19 21 22 22 22 23 25 26 26 27 27 27 28 28 27 27 27 27 28 28 28 28 28 29 29 30 31 32 33 34 35 36 38 39 41 42
11 11 12 12 14 15 14 15 16 17 18 19 20 21 21 22 23 24 25 26 26 27 26 26 26 25 25 25 26 27 27 28 29 30 32 34 35 36 37 39 41 43 44 46
10 9 10 11 11 12 13 14 13 13 14 15 17 18 18 19 19 19 20 21 22 22 22 22 22 23 24 25 26 27 27 29 30 32 33 34 36 38 40 42 44 45 47 49
9 10 10 10 10 10 11 12 12 12 12 13 13 14 15 15 16 17 17 18 20 20 20 20 20 21 22 24 26 28 29 30 32 33 35 37 39 41 43 45 47 48 50 51
10 10 9 10 10 10 9 10 11 11 12 12 13 14 15 15 15 16 16 17 17 18 18 20 21 22 24 25 27 29 31 32 34 36 38 40 42 44 45 47 49 50 51 52
11 10 10 10 10 10 10 10 11 11 11 11 11 11 12 12 13 14 15 16 17 18 20 21 23 24 26 27 29 31 33 35 37 39 41 43 44 45 47 48 49 50 50 50
11 11 10 10 10 10 11 10 10 10 10 10 10 11 12 12 13 14 16 17 19 20 22 23 25 27 29 30 32 34 36 38 40 41 42 44 45 46 47 47 48 47 47 46
11 11 11 11 11 11 11 11 11 11 12 12 12 12 14 15 16 17 18 20 21 23 24 26 28 30 32 33 35 37 39 40 41 42 43 44 45 45 46 46 45 45 44 43
11 11 11 11 11 11 11 11 11 12 12 13 13 14 16 17 18 20 21 22 24 26 28 29 31 33 34 36 38 39 40 41 42 43 43 43 44 44 44 43 43 42 41 40
11 11 11 11 11 11 11 11 12 13 13 14 15 16 18 19 21 22 23 25 27 29 30 32 33 35 36 38 39 40 40 41 42 42 42 42 42 42 41 41 40 39 38 37
12 12 12 12 12 13 13 14 14 15 16 17 18 19 21 22 24 25 27 28 30 31 33 34 35 37 38 39 39 39 40 40 41 41 40 40 39 39 38 37 36 35 34 32
14 14 14 14 14 15 15 16 16 17 18 19 21 22 24 25 27 28 29 31 32 33 34 35 36 37 38 38 38 38 38 38 38 37 37 36 36 35 34 33 32 30 28 27
14 14 14 15 16 16 17 17 18 20 21 22 24 25 26 27 29 30 31 32 32 34 34 35 35 35 35 35 35 35 35 34 34 34 33 33 32 31 30 28 27 25 23 23
15 15 16 17 17 18 19 20 21 22 24 25 26 27 28 29 29 30 31 32 33 33 33 33 33 33 32 32 32 32 32 32 31 30 29 29 27 26 24 23 22 21 20 18

GEFSNGP_500_meanwind_132.txt.gz
Wind_Speed
25 24 23 23 23 22 22 22 21 21 23 23 22 20 16 15 17 17 17 15 14 13 11 10 9 8 7 7 6 6 6 7 7 9 10 11 12 14 15 17 18 19 20 20
27 25 25 22 18 19 22 22 23 24 25 25 25 22 19 19 20 19 18 17 16 14 13 12 10 9 9 8 7 7 7 8 9 9 11 12 13 14 16 17 18 19 20 21
27 25 25 22 20 19 21 22 23 25 27 29 28 25 23 22 22 22 20 19 17 16 15 14 12 11 10 10 9 8 8 8 9 10 11 13 14 15 16 17 18 19 21 22
29 28 27 23 23 24 23 24 26 28 29 29 30 30 29 26 26 25 24 21 20 19 17 16 15 13 13 12 12 11 11 11 11 12 13 13 15 17 18 20 21 21 23 24
28 28 28 28 28 27 27 29 30 30 31 31 30 31 31 28 27 26 25 23 21 20 19 18 17 16 15 15 14 14 13 13 13 14 15 16 16 16 17 18 20 21 22 23
28 27 27 27 28 27 28 31 31 31 31 31 31 31 32 30 28 27 27 25 24 22 21 20 19 18 17 17 16 16 16 16 15 15 16 17 18 18 19 19 20 21 23 24
27 27 28 29 28 27 28 30 29 30 30 31 32 32 32 30 29 27 27 26 25 24 23 22 21 20 19 19 19 18 18 19 19 19 18 19 20 20 21 21 22 24 25 26
27 28 29 30 30 30 30 30 30 30 30 30 31 31 31 31 30 29 28 27 27 26 25 23 22 21 21 20 20 20 20 21 21 21 21 21 22 23 23 24 25 26 27 27
28 29 30 30 30 30 30 30 30 30 29 29 30 31 31 30 30 29 28 28 28 28 26 25 25 24 23 23 22 22 22 23 23 24 24 24 25 25 24 24 25 26 28 30
26 27 28 29 29 30 30 30 30 30 29 29 30 30 30 29 30 30 29 29 28 28 27 27 26 26 26 25 25 25 25 25 25 26 26 25 25 26 26 27 28 29 30 31
26 27 28 28 28 28 28 29 28 28 28 29 29 29 29 29 29 29 29 28 28 28 28 28 28 28 27 28 27 27 27 28 28 28 29 28 29 30 30 30 30 31 31 32
25 26 26 26 26 26 26 26 27 27 27 28 27 27 27 28 28 28 28 28 28 28 29 30 30 30 30 30 29 29 29 29 29 30 30 30 30 31 31 32 32 33 34 35
24 23 23 23 24 24 24 24 24 24 24 25 25 26 26 26 26 26 26 27 28 29 29 30 30 30 29 29 29 30 29 29 29 30 30 30 31 32 32 33 33 34 34 35
21 21 21 21 21 22 22 21 21 22 23 24 25 25 25 26 26 25 26 26 26 27 27 28 28 28 28 29 30 30 30 30 31 31 31 31 31 32 32 32 33 33 34 35
18 18 17 17 17 17 17 18 19 19 20 21 21 22 24 25 25 25 25 25 25 26 26 26 26 27 28 29 30 29 30 30 29 28 28 29 30 31 32 33 34 35 37 39
15 15 15 15 14 14 14 15 16 16 17 17 18 20 21 21 21 21 22 22 23 24 23 24 25 25 26 26 27 27 27 27 27 27 27 28 30 31 33 35 37 38 40 42
12 12 13 13 12 11 12 13 13 13 14 14 14 14 15 16 16 16 17 18 19 20 21 21 22 21 22 23 23 23 24 24 25 27 28 29 31 33 35 37 40 42 43 45
12 11 10 10 10 10 10 11 11 11 11 10 10 10 10 10 10 11 13 14 15 16 17 18 17 18 19 20 21 22 23 24 26 27 30 32 34 36 38 40 41 43 44 45
13 12 11 10 10 10 10 9 8 8 8 8 8 9 10 10 10 11 11 13 14 14 14 15 17 18 18 19 21 22 24 26 28 30 32 34 36 37 39 41 42 43 45 46
12 12 11 11 10 8 8 8 8 8 8 8 9 10 11 11 12 12 13 13 13 13 14 16 17 18 20 21 23 24 26 28 30 32 34 36 37 39 40 42 43 45 46 46
11 11 11 10 9 9 8 8 8 9 9 9 9 9 9 10 11 12 12 13 14 15 17 18 19 21 22 24 26 27 29 31 33 34 36 37 39 40 42 43 44 44 45 44
10 10 10 10 9 9 9 9 8 9 9 9 9 10 10 11 12 13 13 15 16 18 19 21 22 24 25 27 28 30 32 33 35 36 38 39 40 41 42 42 42 42 42 42
10 10 11 10 10 10 10 10 9 9 9 10 10 10 11 12 13 14 16 17 19 20 22 23 25 26 28 29 31 33 34 35 37 38 39 39 40 40 40 40 39 39 39 39
10 10 10 10 10 10 10 9 9 10 10 11 11 12 13 15 16 17 18 20 21 22 24 26 27 29 30 32 33 34 35 36 36 37 37 38 38 37 37 37 37 36 36 35
10 10 10 9 10 11 11 11 11 12 13 14 15 16 17 18 19 20 21 23 24 26 27 28 30 31 32 33 33 33 34 34 35 35 35 35 35 34 34 34 33 32 32 31
11 11 10 10 11 12 13 14 14 15 15 16 17 18 19 20 21 22 24 25 26 27 29 30 30 31 32 32 32 32 32 32 32 32 32 32 32 32 31 31 30 29 28 27
11 12 12 12 13 14 15 16 16 17 18 19 20 21 22 23 23 24 25 26 27 28 29 29 30 30 30 30 30 30 30 30 30 29 29 29 29 28 28 28 27 26 25 23

GEFSNGP_500_meanwind_138.txt.gz
Wind_Speed
26 26 26 25 24 24 24 23 23 21 20 20 19 18 16 14 13 12 10 8 7 8 8 8 8 8 8 7 7 6 6 5 8 10 11 12 13 13 14 15 16 18 19 20
28 27 28 28 26 26 26 26 25 24 23 22 21 19 17 15 14 13 12 11 10 10 10 10 10 10 9 7 7 7 6 7 7 9 10 10 11 13 15 16 16 17 18 19
30 29 28 29 29 28 29 29 27 26 25 23 22 20 18 18 17 16 16 14 13 12 12 12 12 12 10 9 8 8 8 7 7 8 11 12 12 12 14 16 17 18 19 20
32 31 31 29 30 30 30 30 28 27 25 25 24 21 20 19 19 18 17 16 15 14 14 14 13 13 13 11 10 10 10 10 9 8 10 12 13 14 14 15 16 18 19 20
33 32 31 30 31 32 32 30 28 28 27 25 24 23 22 22 22 20 19 19 18 17 16 16 15 14 14 14 13 12 13 12 12 12 11 12 13 15 16 16 17 18 19 20
33 32 32 32 32 33 33 32 30 28 27 27 26 25 24 24 23 22 22 21 20 19 19 18 17 16 16 16 15 14 14 14 14 14 14 15 15 15 16 17 17 18 19 20
32 32 32 32 32 31 32 30 29 28 28 28 27 27 26 25 24 23 23 22 22 22 21 20 19 19 18 17 15 16 16 16 16 16 16 17 17 17 17 18 19 20 20 21
32 32 32 30 31 31 31 30 29 28 27 28 28 27 26 25 25 25 24 23 23 22 22 21 21 21 20 19 18 17 17 17 17 17 18 18 18 19 19 20 20 21 23 23
31 31 30 29 31 30 29 30 28 27 28 27 27 27 27 26 25 23 24 23 23 23 24 23 22 22 22 21 20 20 19 19 18 18 19 19 19 20 21 21 21 22 23 24
29 28 28 27 27 28 28 27 28 27 27 28 28 28 27 27 26 25 24 24 24 24 24 24 23 23 23 23 22 21 20 20 19 20 21 22 22 23 23 23 23 24 25 26
26 26 27 27 27 26 26 27 27 26 26 26 26 26 25 25 25 25 24 23 23 23 23 23 23 23 24 23 23 23 22 22 22 22 23 24 23 23 23 24 25 26 26 28
23 24 24 24 24 24 24 25 26 26 25 24 24 24 24 24 24 23 23 23 23 22 22 22 22 23 23 23 22 23 23 23 24 24 23 24 24 25 26 27 27 27 28 29
21 21 21 22 22 22 23 23 23 23 23 22 22 23 22 22 23 23 23 22 22 21 21 21 21 22 22 22 22 22 23 23 23 24 25 26 26 27 28 29 30 30 29 30
19 19 19 19 19 19 20 20 20 20 20 20 21 21 21 20 21 21 21 21 21 20 20 20 21 22 22 23 23 22 23 24 24 25 26 27 27 28 29 30 30 30 30 30
17 18 18 19 18 18 18 18 18 18 19 19 19 19 19 19 19 19 19 19 20 20 20 21 21 22 22 22 22 23 24 24 24 25 25 26 26 27 28 28 28 29 29 31
15 16 17 17 16 16 16 16 16 16 16 17 17 17 17 17 17 17 17 17 18 18 18 19 20 20 20 20 21 22 22 23 24 24 24 24 24 24 25 26 27 28 30 32
14 14 14 14 14 14 14 13 14 13 13 13 13 14 14 14 14 14 14 15 15 15 15 16 17 17 18 18 19 20 20 20 20 20 21 21 22 23 24 26 28 30 32 34
13 13 13 13 13 13 12 11 11 10 10 10 11 11 11 11 12 12 12 11 11 12 13 14 15 16 16 16 16 16 17 18 19 19 21 22 24 26 27 29 30 32 34 36
12 12 12 11 10 11 11 10 9 9 9 9 9 9 9 10 10 11 10 10 11 11 12 12 13 14 14 14 15 16 16 18 19 21 23 25 26 28 29 31 33 35 37 39
11 11 11 11 10 10 10 10 10 10 10 9 9 8 8 8 9 9 10 10 11 12 13 14 14 15 16 16 16 17 18 20 21 23 25 27 28 30 32 34 35 37 39 40
11 11 11 11 11 11 10 10 9 10 10 10 9 9 9 9 9 10 10 11 11 13 14 15 16 16 16 17 18 20 21 23 24 26 28 30 32 33 35 37 38 39 40 42
12 11 11 11 11 10 10 10 9 9 9 9 9 9 9 9 9 10 10 10 11 12 13 14 14 16 17 19 21 22 24 26 28 29 31 32 34 35 36 38 38 39 39 40
12 11 11 10 10 10 9 9 8 8 8 9 9 8 9 8 8 9 9 10 11 13 14 15 16 18 20 22 24 25 27 28 30 31 32 33 34 35 36 36 36 36 36 36
12 12 11 10 10 9 8 7 8 8 8 8 8 8 8 9 10 11 11 12 13 15 16 18 19 21 22 24 26 27 28 29 30 31 32 33 33 34 33 33 33 33 33 32
12 12 11 10 10 9 8 8 8 9 8 8 8 9 10 10 11 12 13 14 16 17 19 20 22 23 24 25 27 27 28 29 30 30 31 31 31 31 31 30 30 30 30 30
12 11 11 11 10 9 9 9 8 9 9 10 11 12 13 14 14 16 17 19 20 21 22 22 23 24 25 26 26 27 28 28 28 28 28 28 28 27 27 27 27 27 26 26
12 11 11 11 11 10 10 10 10 11 11 13 14 15 16 17 18 19 20 22 22 23 23 24 24 24 25 25 26 26 26 26 26 26 26 25 25 25 25 25 24 23 23 23

GEFSNGP_500_meanwind_144.txt.gz
Wind_Speed
24 24 24 24 23 22 22 21 19 17 16 15 15 14 13 12 12 11 10 9 9 9 9 9 8 8 8 7 7 7 7 7 8 8 9 10 13 15 16 17 17 18 18 19
25 25 26 25 25 24 23 21 19 18 16 15 15 15 15 14 13 12 11 11 11 11 11 11 11 10 9 8 9 9 8 8 8 8 9 10 11 14 14 15 17 18 18 19
27 26 26 27 25 24 23 22 21 20 18 17 16 16 15 14 14 13 13 12 13 13 14 13 13 12 11 10 10 10 9 9 9 9 9 10 11 13 14 15 17 17 18 19
28 27 29 27 25 24 24 23 22 21 20 18 18 17 16 15 15 15 14 14 15 15 16 15 15 14 13 12 12 11 11 10 10 10 10 11 12 13 14 16 17 18 18 19
30 30 29 28 26 25 24 23 22 21 20 20 19 18 18 18 18 18 17 17 17 16 16 17 17 16 15 14 13 13 13 13 12 12 11 12 13 13 14 16 17 18 18 19
32 32 31 29 28 27 25 24 23 22 22 22 22 21 20 20 20 20 19 19 19 18 17 18 18 18 18 16 15 15 14 15 14 13 13 13 13 13 14 16 17 17 18 19
34 33 32 30 29 28 27 25 24 24 24 23 23 23 22 22 21 20 20 20 20 20 19 18 18 18 18 18 17 17 16 16 16 15 15 15 15 15 16 17 18 18 18 19
35 34 32 29 30 30 28 26 26 25 24 24 24 22 21 21 21 21 21 21 21 20 20 20 20 20 20 19 18 18 18 17 17 17 17 18 18 18 18 18 19 18 18 20
33 33 31 30 30 29 29 28 28 27 26 25 24 23 22 22 22 23 22 22 22 21 21 21 21 21 21 20 21 20 20 19 19 19 19 19 19 19 19 18 19 20 20 21
31 30 31 31 30 29 28 27 27 27 26 24 23 23 23 23 23 23 23 23 23 22 22 23 23 23 22 22 22 22 22 21 21 21 20 20 19 20 21 21 21 22 22 23
29 29 30 30 30 29 28 27 26 26 25 24 23 22 23 24 23 22 23 22 22 23 23 23 23 23 23 23 22 22 22 22 22 21 21 21 21 21 21 22 23 24 24 25
26 26 27 27 27 26 26 26 25 25 24 23 23 23 22 21 22 22 22 22 22 22 22 22 21 22 23 23 23 23 22 22 22 22 23 23 22 23 23 24 24 25 27 28
24 24 24 23 24 24 24 24 24 24 23 22 21 21 21 20 19 19 20 20 21 21 21 21 20 20 21 22 22 22 21 21 21 22 23 24 25 25 25 26 27 27 28 29
22 22 22 22 22 22 22 23 22 22 21 21 20 20 20 19 18 18 18 18 18 18 19 19 19 19 19 19 19 19 20 21 22 22 23 24 25 27 27 28 29 30 30 31
22 21 20 21 21 21 20 21 21 20 20 20 20 19 18 18 17 16 16 16 16 17 17 18 18 18 19 19 19 20 21 21 22 22 23 24 25 26 28 29 29 30 30 31
20 19 19 19 19 18 19 19 19 20 19 19 17 17 16 16 15 15 14 14 15 15 15 16 16 17 17 17 18 19 19 20 21 22 23 24 24 25 26 27 27 28 29 29
19 18 18 18 19 18 18 18 18 18 17 17 16 16 16 15 15 15 14 13 14 14 14 14 15 15 15 16 17 18 19 19 20 21 22 23 23 24 25 26 26 27 28 30
18 18 18 19 18 18 17 17 16 15 14 14 15 15 15 15 15 15 14 14 14 14 14 14 15 16 16 16 17 18 19 20 21 21 21 22 22 24 25 26 27 28 30 32
17 17 17 17 18 17 16 15 15 14 13 14 13 13 13 13 13 13 13 13 14 13 13 14 15 15 16 16 17 18 19 20 20 21 21 22 23 25 26 28 29 31 33 35
16 15 15 16 16 15 15 14 13 13 12 12 12 12 12 12 11 12 12 13 13 13 14 14 14 15 16 16 17 18 19 19 20 21 23 24 26 27 28 30 32 34 35 37
14 14 15 15 15 14 13 13 12 12 11 11 11 11 10 11 11 11 12 13 13 14 14 15 15 16 17 17 18 19 20 21 22 23 25 26 28 29 31 33 34 35 36 37
14 15 15 15 15 14 14 13 13 12 12 12 11 11 11 12 12 13 14 13 13 14 14 15 15 17 18 19 20 21 21 22 23 25 26 27 29 31 32 33 34 34 35 35
15 15 15 14 13 13 13 13 12 12 11 11 11 12 12 13 13 14 14 14 14 15 15 15 16 17 19 20 21 21 22 23 25 26 28 29 30 31 31 32 32 33 33 33
15 15 15 14 13 12 12 11 11 11 10 10 11 11 12 12 13 13 14 14 14 15 16 17 18 19 20 21 23 24 25 26 27 28 29 29 30 30 30 30 30 30 30 30
14 14 14 13 12 12 11 11 10 10 10 10 10 10 11 11 11 12 13 14 15 16 17 18 20 21 23 24 25 25 26 26 27 28 29 29 29 29 28 28 28 28 29 29
13 13 12 12 11 10 10 10 9 9 9 10 10 10 11 11 12 13 15 16 18 19 20 21 22 23 24 24 25 25 26 27 27 28 28 28 28 27 27 27 27 28 28 28
12 12 12 11 11 10 10 10 10 11 11 11 11 12 13 14 16 17 18 19 20 21 22 23 24 24 24 25 25 26 26 27 27 27 27 27 26 26 26 26 26 26 26 25

GEFSNGP_500_meanwind_150.txt.gz
Wind_Speed
25 24 22 21 21 21 20 19 18 17 17 16 16 15 14 14 13 12 11 11 10 9 9 10 9 9 9 9 9 9 9 9 10 10 10 11 11 13 14 16 17 18 19 19
25 25 23 22 21 21 21 20 19 18 18 17 16 15 15 14 14 14 13 12 12 11 11 11 10 10 10 10 10 10 11 11 11 11 10 11 12 12 14 16 18 19 20 20
25 25 24 24 23 22 21 19 19 19 18 17 16 15 15 15 15 15 14 14 14 14 13 12 12 11 11 11 11 12 12 12 11 11 11 12 12 12 14 15 17 19 21 22
26 26 25 25 24 23 23 22 20 20 19 18 17 17 16 15 15 16 15 14 14 15 15 14 14 14 14 13 13 13 13 13 14 13 13 13 13 14 13 14 15 17 19 20
26 25 26 27 24 23 23 22 20 20 20 20 18 18 17 16 16 16 16 16 16 16 16 16 15 15 16 15 15 15 15 15 14 15 14 15 15 14 14 14 15 17 19 20
28 25 25 27 24 24 24 23 22 21 20 20 20 20 19 18 18 18 18 18 19 18 18 18 18 17 17 17 17 17 17 16 16 15 15 16 16 15 15 15 16 17 18 20
28 27 27 27 24 24 25 24 23 22 22 21 21 21 20 20 20 20 20 20 20 21 21 20 20 19 19 18 18 18 18 18 18 17 17 18 18 17 18 18 18 19 20 21
29 27 28 27 25 26 25 24 24 23 23 22 22 22 21 21 22 21 21 21 21 21 21 21 21 21 20 20 19 19 19 20 20 19 19 19 19 19 19 19 20 20 20 20
31 30 29 27 26 26 25 25 25 24 23 23 23 23 22 23 22 21 21 21 21 21 21 22 22 22 21 21 21 21 21 21 22 22 21 21 21 20 20 20 20 21 21 22
31 31 29 28 28 28 27 27 27 26 25 25 24 23 23 23 22 22 21 21 20 20 21 22 22 22 22 23 23 23 22 22 22 23 23 23 23 22 22 21 21 21 21 21
30 30 30 30 29 28 28 28 28 27 26 25 25 24 23 22 22 22 21 21 21 22 22 22 22 22 23 23 23 23 23 22 22 23 23 23 23 23 23 22 23 22 22 23
30 29 29 28 28 28 28 28 27 27 26 26 25 24 24 23 23 23 22 22 22 22 22 23 23 23 23 23 22 23 23 23 23 24 23 24 24 24 23 23 23 23 24 25
28 28 28 28 27 27 27 27 26 26 26 26 25 25 24 24 24 23 23 22 22 22 22 22 22 22 23 23 23 23 23 24 24 25 25 26 26 26 25 25 26 26 28 28
27 28 28 27 27 27 26 25 25 25 25 25 25 24 23 23 23 22 21 21 20 20 20 20 21 21 21 21 21 22 22 23 23 23 24 24 24 23 23 25 26 27 28 29
27 27 27 27 27 26 26 25 24 24 24 23 23 22 21 21 20 20 19 19 19 19 19 19 19 20 20 19 20 20 21 21 21 21 22 22 22 22 23 25 25 26 27 28
25 25 25 26 26 25 25 24 24 24 23 22 22 22 21 21 20 19 18 18 18 18 18 18 18 18 18 18 19 19 19 19 20 20 20 20 21 22 23 24 25 26 27 28
24 24 23 23 24 24 24 24 23 22 21 21 21 20 20 19 19 19 18 18 17 17 16 16 15 15 16 17 17 18 18 19 19 20 20 21 22 23 24 25 26 27 27 27
24 24 24 23 23 23 23 23 23 22 22 21 21 19 18 18 18 18 17 17 16 16 15 15 15 15 16 16 17 17 18 19 20 20 21 22 23 24 24 25 26 27 27 27
24 23 23 22 21 22 22 22 22 22 22 21 20 20 18 17 17 16 16 16 16 15 15 15 15 15 15 16 17 17 18 19 20 21 22 23 23 24 24 25 26 27 28 29
22 22 21 21 21 21 21 21 20 20 20 19 19 19 18 16 16 16 16 15 15 16 16 15 15 15 15 16 17 18 19 20 20 21 21 21 22 23 24 25 26 27 28 29
20 20 20 20 20 19 19 19 18 18 19 19 19 17 16 15 15 15 15 15 15 15 15 15 15 16 17 17 18 18 19 20 20 21 22 23 24 25 26 27 27 28 29 29
19 19 19 19 19 18 18 18 17 17 17 17 17 15 15 15 15 15 15 14 14 14 15 16 16 17 18 18 19 19 19 20 21 22 23 24 25 25 26 27 27 27 27 27
17 18 18 18 18 17 17 17 17 16 15 15 15 15 15 15 15 14 14 14 14 15 15 16 16 17 18 19 19 20 20 21 22 23 24 24 25 25 26 26 26 26 26 26
16 16 16 17 16 16 16 16 16 15 15 14 14 14 14 14 14 14 14 14 14 15 15 16 17 17 18 19 20 21 21 22 23 24 24 25 25 26 26 26 25 25 25 25
16 16 16 16 16 16 15 15 14 14 14 14 13 13 13 13 13 13 13 14 14 14 15 15 16 18 19 19 20 21 22 22 23 24 25 25 25 25 25 25 25 25 25 25
16 15 16 16 16 15 14 13 13 13 13 13 12 12 12 12 12 12 12 13 13 14 15 16 17 18 19 20 21 22 22 23 24 25 25 25 25 25 25 25 24 25 25 25
14 15 15 15 14 14 13 13 12 12 12 11 11 11 12 11 11 12 12 13 15 15 16 17 19 20 21 21 22 23 24 24 24 24 24 24 25 25 24 24 24 24 24 24

GEFSNGP_500_meanwind_156.txt.gz
Wind_Speed
27 22 22 20 19 22 24 23 22 23 25 25 24 20 20 19 19 18 17 16 15 14 13 13 13 12 12 12 12 11 11 11 10 10 11 11 12 12 12 13 14 13 14 16
29 25 20 20 20 21 23 23 23 24 25 25 26 23 21 19 20 19 18 16 16 15 14 14 14 13 13 13 12 12 12 12 12 11 12 12 12 12 12 13 13 14 15 16
28 25 24 23 22 22 22 23 24 26 26 25 24 22 21 20 19 19 18 18 17 16 16 15 16 15 15 15 14 14 14 14 13 13 13 13 12 12 12 13 14 15 16 17
29 28 27 24 21 21 22 24 26 26 27 26 24 22 23 21 20 20 20 19 18 17 17 17 17 16 16 15 15 15 15 15 14 14 14 14 13 13 14 14 15 15 16 18
30 28 26 24 24 24 25 26 27 28 27 27 26 25 24 23 22 20 19 19 19 18 18 18 18 17 17 16 16 16 16 16 16 15 15 15 15 15 15 16 16 16 17 17
32 30 28 28 27 27 27 28 28 29 27 26 26 24 23 22 22 20 19 19 19 19 19 19 18 18 18 18 18 18 17 17 17 17 16 16 17 17 17 17 17 17 18 18
33 31 30 30 29 27 29 29 29 29 28 28 27 26 23 21 21 20 20 20 20 20 20 20 20 20 20 19 19 19 19 19 19 18 18 18 18 18 19 18 18 17 18 18
35 34 32 33 31 31 31 29 28 28 26 27 26 25 23 22 22 22 22 21 21 21 21 21 21 21 21 21 21 21 21 20 20 20 19 19 19 19 20 19 19 19 19 20
36 37 36 33 32 31 30 29 28 28 27 27 27 25 24 23 23 23 22 22 22 22 22 22 22 21 21 22 22 22 22 21 21 21 20 20 20 20 20 20 20 20 21 21
37 38 35 33 32 32 30 29 28 28 28 27 26 26 25 24 24 23 22 22 22 22 22 22 21 21 21 22 22 22 22 22 21 21 21 21 21 21 21 21 21 21 22 22
38 38 36 34 34 32 29 29 28 28 27 28 28 27 26 26 25 25 24 23 23 23 22 22 21 22 21 21 21 22 22 22 22 21 21 21 21 22 22 22 22 22 23 23
39 38 35 34 33 32 31 29 30 30 29 29 29 28 27 27 27 26 25 24 24 24 24 23 23 22 22 22 22 22 22 22 22 22 22 23 23 23 23 23 23 23 23 24
35 35 34 31 29 30 30 30 29 29 29 29 29 28 28 28 27 27 26 25 25 24 23 23 23 22 22 23 22 23 22 22 22 22 22 23 23 24 24 24 24 24 24 25
31 32 31 30 29 29 29 29 29 29 29 29 28 28 28 27 27 27 26 25 25 24 23 22 22 22 22 22 23 23 23 23 22 22 22 23 23 24 24 24 24 24 24 24
28 31 30 28 29 30 30 30 29 28 28 28 27 27 27 27 27 27 26 25 24 23 23 22 22 22 22 22 22 22 23 23 23 23 23 23 23 23 23 23 23 23 24 25
27 29 28 27 28 29 29 29 29 29 28 28 27 27 27 27 27 26 25 25 24 23 22 22 22 22 22 21 21 22 22 22 22 22 22 22 22 22 23 23 24 24 25 26
27 27 27 28 28 29 28 28 28 27 27 27 27 26 25 25 25 24 23 23 22 22 21 21 21 21 20 20 20 20 20 21 21 21 21 21 21 22 23 24 25 26 27 28
27 26 26 27 28 28 28 28 27 27 27 26 25 24 23 23 23 22 22 22 21 21 21 21 20 20 19 20 20 20 21 21 21 21 22 22 23 24 25 26 27 28 28 29
27 26 26 26 26 26 26 26 27 26 25 24 24 22 21 21 21 21 21 20 20 19 19 19 19 19 19 20 21 21 21 21 21 21 22 23 24 25 26 27 27 28 29 28
26 26 25 25 25 24 24 24 24 24 23 22 22 21 21 20 19 19 18 18 18 18 18 19 19 19 19 19 20 20 20 20 21 22 23 24 25 26 27 27 28 28 28 29
24 24 24 23 23 23 22 21 21 21 22 21 20 20 19 19 18 17 17 17 17 17 17 17 18 19 19 19 20 20 21 21 22 23 24 25 25 26 27 27 27 27 27 28
22 22 21 21 20 20 21 20 20 20 19 19 19 18 17 17 17 17 17 17 17 17 17 18 18 18 18 19 19 20 21 22 22 23 24 24 25 25 26 26 26 26 27 28
20 19 19 18 19 19 19 19 18 18 17 17 17 16 16 16 16 16 17 17 18 17 17 17 17 17 18 19 20 21 21 21 22 23 24 25 26 26 26 27 27 28 29 29
17 16 16 16 18 18 17 16 16 16 16 15 15 15 15 15 15 15 16 16 16 16 16 17 17 18 19 20 20 20 21 22 23 24 25 26 27 27 27 28 28 29 30 30
15 14 14 15 15 15 15 14 13 14 14 14 14 14 14 14 14 14 14 14 15 15 16 17 18 19 19 20 20 21 22 22 23 24 25 26 27 27 27 28 29 29 30 30
14 13 13 14 14 15 15 14 14 14 13 13 13 13 13 13 13 14 14 15 15 16 16 17 18 19 19 20 20 21 21 22 23 24 25 25 26 27 28 28 29 29 29 29
12 13 13 14 14 14 14 13 13 13 13 13 12 12 12 12 13 13 14 15 16 16 17 17 17 18 19 19 20 21 22 22 23 24 25 25 26 27 27 28 28 28 28 29

GEFSNGP_500_meanwind_162.txt.gz
Wind_Speed
30 28 27 26 25 26 28 28 26 24 25 23 21 20 19 17 17 17 16 15 15 15 14 12 11 11 10 10 9 8 8 8 8 9 8 9 9 9 10 10 11 11 12 12
32 30 30 30 28 27 27 27 27 25 24 23 23 21 20 18 19 17 15 15 16 16 13 13 13 10 9 9 9 8 8 8 9 9 9 9 10 11 11 11 11 11 11 12
34 33 32 33 31 30 28 28 27 26 24 23 23 21 21 20 19 18 16 16 16 14 14 14 13 11 10 10 9 9 8 9 9 10 10 11 11 11 11 11 11 11 11 12
35 35 36 32 30 29 28 28 28 26 25 25 23 22 22 22 21 20 17 16 15 14 14 14 13 11 11 11 10 10 10 10 10 10 11 11 11 11 11 11 10 10 10 11
37 37 37 34 31 31 30 30 29 29 28 26 25 25 24 23 22 20 19 16 15 14 14 13 12 12 12 12 11 12 11 11 11 11 11 12 12 12 12 11 11 11 12 13
38 38 39 35 33 32 31 31 29 29 28 27 25 25 25 24 23 20 18 17 16 15 13 13 13 13 13 13 12 12 12 12 12 12 12 12 12 13 13 12 12 12 13 14
38 38 38 35 34 33 34 31 29 29 28 27 26 25 24 23 22 20 18 16 14 14 13 13 13 13 13 13 13 13 13 13 13 13 13 14 14 14 14 14 14 14 14 14
39 39 38 35 34 35 34 31 30 28 27 26 26 25 24 23 21 18 16 15 15 14 13 13 13 14 14 14 14 14 14 14 14 14 14 15 15 15 15 15 15 15 15 15
40 39 37 35 35 35 34 33 31 29 26 26 26 25 24 23 22 19 17 17 16 15 15 15 15 16 15 15 15 15 15 16 16 15 15 15 15 15 15 15 16 16 16 16
38 38 36 34 34 34 34 32 31 30 28 27 25 24 24 25 23 19 17 17 16 16 16 16 17 17 17 17 17 17 16 17 16 16 16 17 17 16 16 17 17 17 17 18
36 35 35 34 34 34 34 33 31 31 30 28 26 23 23 22 22 20 18 17 17 17 17 18 18 17 17 17 17 17 17 17 18 18 18 18 18 18 18 17 18 18 19 20
37 35 34 34 34 33 32 33 32 31 30 27 25 24 23 22 20 20 20 19 19 19 19 18 19 19 18 18 18 18 18 18 18 18 18 18 18 17 17 18 19 19 20 21
34 33 32 31 31 31 31 30 29 28 27 25 24 24 24 22 22 21 21 20 20 20 20 20 20 20 19 19 19 18 18 18 18 18 18 18 18 18 18 19 20 20 21 21
34 32 30 30 30 31 30 29 27 25 26 25 23 23 22 22 21 21 21 21 21 21 21 21 21 20 20 19 19 18 18 18 18 18 18 18 18 19 19 20 20 21 21 21
31 30 29 29 30 29 28 26 25 24 24 23 23 23 22 22 22 21 21 21 21 21 21 21 21 20 20 19 19 19 19 18 19 18 18 19 19 19 20 21 21 22 22 22
28 27 26 25 24 24 25 25 23 23 22 21 22 21 20 21 21 21 21 21 21 21 22 22 21 21 21 20 20 20 19 19 19 18 18 19 19 20 21 21 22 23 23 24
25 25 26 24 23 22 22 22 22 22 21 20 21 21 20 20 21 21 21 21 21 21 21 21 21 21 21 20 19 19 19 19 19 19 19 19 20 21 22 22 23 24 25 25
22 23 23 22 22 22 22 22 22 23 23 22 22 21 21 21 21 21 21 21 21 21 20 21 21 20 19 19 18 19 19 19 20 20 20 21 22 23 23 24 23 24 26 27
21 21 21 21 19 19 20 21 21 22 22 21 21 21 21 21 21 21 20 20 20 20 20 20 19 19 19 18 19 19 20 20 20 20 21 22 23 24 24 24 25 26 27 27
20 20 20 19 18 18 18 19 19 18 19 19 19 20 20 20 20 20 19 19 18 18 18 18 18 18 18 18 19 19 19 20 20 21 22 22 23 24 24 25 26 26 26 27
20 20 20 18 17 17 17 17 17 17 17 17 17 18 18 18 18 18 18 18 18 17 17 18 18 18 18 18 18 19 19 19 19 20 21 22 23 24 24 25 25 26 26 27
19 19 19 18 17 16 17 17 17 17 17 16 17 18 18 17 17 17 17 17 16 16 16 16 17 17 17 17 18 18 19 19 20 21 22 22 23 24 24 25 26 26 26 27
18 18 18 17 17 16 16 16 17 16 16 16 16 16 16 15 15 15 15 15 15 15 15 16 16 17 18 18 18 19 19 19 20 21 21 22 23 23 24 25 25 26 28 28
17 17 17 16 16 15 15 15 15 15 15 15 15 15 15 15 14 14 14 15 14 15 16 16 17 18 19 19 19 19 19 20 21 21 22 23 23 24 25 26 26 27 28 29
15 16 16 17 16 15 14 14 14 15 15 15 14 14 13 13 14 13 14 14 15 15 16 16 17 18 18 18 19 19 20 21 21 22 22 23 24 25 26 26 27 28 28 28
15 15 15 15 15 14 13 13 14 14 14 14 13 13 12 13 13 14 14 15 15 15 15 16 16 17 18 18 19 19 20 21 21 22 22 23 24 25 26 26 27 27 27 28
14 14 14 14 14 13 13 13 13 13 13 13 13 13 12 12 12 13 13 14 15 15 15 16 17 17 18 19 19 20 21 21 21 22 22 23 24 24 25 26 26 27 27 27